Weather History for Sheldon, IA

Change the Weather History Date:

Thursday, April 24, 2014

  Actual Average Record
Temperature  
Mean Temperature 51 °F -  
Max Temperature 60 °F 63 °F 87 °F (2012)
Min Temperature 42 °F 36 °F 18 °F (1956)
Degree Days  
Heating Degree Days 14    
Growing Degree Days 1 (Base 50)    
Moisture  
Dew Point 43 °F    
Average Humidity 79    
Maximum Humidity 100    
Minimum Humidity 42    
Precipitation  
Precipitation 0.10 in - - ()
Sea Level Pressure  
Sea Level Pressure 29.70 in    
Wind  
Wind Speed 11 mph (NE)    
Max Wind Speed 23 mph    
Max Gust Speed 32 mph    
Visibility 8 miles    
Events Rain    
Averages and records for this station are not official NWS values.
T = Trace of Precipitation, MM = Missing Value Source: NWS Daily Summary

Daily Weather History Graph

Daily Weather History Graph

Search for Another Location

Airport:

Trip Planner

Search our weather history database for the weather conditions in past years. The results will help you decide how hot, cold, wet, or windy it might be!

Date:

Astronomy

Apr. 24, 2014 Rise Set
Actual Time 6:26 AM CDT 8:16 PM CDT
Civil Twilight 5:56 AM CDT 8:47 PM CDT
Nautical Twilight 5:19 AM CDT 9:24 PM CDT
Astronomical Twilight 4:39 AM CDT 10:04 PM CDT
Moon 3:47 AM CDT (4/24) 3:25 PM CDT (4/24)
Length of Visible Light 14h 50m
Length of Day
13h 49m
Waning Crescent, 24% of the Moon is Illuminated
Apr 24
Waning Crescent
Apr 29
New
May 6
First Quarter
May 14
Full
May 21
Last Quarter

Hourly Weather History & Observations

Time (CDT) Temp. Windchill Dew Point Humidity Pressure Visibility Wind Dir Wind Speed Gust Speed Precip Events Conditions
12:15 AM 46.4 °F 38.7 °F 42.8 °F 87% 29.69 in 10.0 mi SE 20.7 mph 32.2 mph N/A   Mostly Cloudy
12:35 AM 46.4 °F 39.8 °F 42.8 °F 87% 29.68 in 10.0 mi SE 16.1 mph - N/A   Mostly Cloudy
12:55 AM 46.4 °F 41.1 °F 42.8 °F 87% 29.67 in 10.0 mi SE 11.5 mph - N/A   Scattered Clouds
1:15 AM 46.4 °F 43.5 °F 42.8 °F 87% 29.68 in 10.0 mi East 5.8 mph - N/A   Clear
1:35 AM 46.4 °F 44.3 °F 42.8 °F 87% 29.69 in 10.0 mi East 4.6 mph - N/A   Mostly Cloudy
1:55 AM 48.2 °F - 44.6 °F 87% 29.69 in 10.0 mi Variable 5.8 mph 11.5 mph N/A   Overcast
2:15 AM 48.2 °F - 46.4 °F 93% 29.68 in 10.0 mi South 6.9 mph - N/A   Overcast
2:35 AM 48.2 °F - 46.4 °F 93% 29.67 in 10.0 mi South 8.1 mph - N/A   Overcast
2:55 AM 48.2 °F - 46.4 °F 93% 29.69 in 10.0 mi WSW 4.6 mph - N/A   Overcast
3:15 AM 48.2 °F - 46.4 °F 93% 29.68 in 4.0 mi SSE 5.8 mph - N/A Rain Light Rain
3:35 AM 48.2 °F - 46.4 °F 93% 29.67 in 7.0 mi SSE 10.4 mph - N/A   Overcast
3:55 AM 48.2 °F - 44.6 °F 87% 29.68 in 8.0 mi SSE 9.2 mph - 0.02 in   Overcast
4:15 AM 46.4 °F - 44.6 °F 93% 29.69 in 8.0 mi Calm Calm - N/A   Overcast
4:35 AM 46.4 °F 41.5 °F 44.6 °F 93% 29.68 in 5.0 mi ESE 10.4 mph - N/A   Overcast
4:55 AM 46.4 °F 41.5 °F 44.6 °F 93% 29.67 in 6.0 mi East 10.4 mph - 0.02 in   Overcast
5:15 AM 44.6 °F 38.8 °F 42.8 °F 93% 29.67 in 5.0 mi East 11.5 mph - N/A   Overcast
5:35 AM 44.6 °F 38.1 °F 42.8 °F 93% 29.65 in 4.0 mi ESE 13.8 mph - N/A   Overcast
5:55 AM 44.6 °F 38.4 °F 42.8 °F 93% 29.64 in 5.0 mi East 12.7 mph - 0.04 in   Overcast
6:15 AM 44.6 °F 38.1 °F 42.8 °F 93% 29.64 in 6.0 mi East 13.8 mph - N/A   Overcast
6:35 AM 44.6 °F 38.8 °F 42.8 °F 93% 29.64 in 7.0 mi ESE 11.5 mph - N/A   Overcast
6:55 AM 42.8 °F 37.5 °F 42.8 °F 100% 29.65 in 7.0 mi ESE 9.2 mph - N/A   Overcast
7:15 AM 42.8 °F 38.0 °F 42.8 °F 100% 29.66 in 2.0 mi ESE 8.1 mph - N/A   Overcast
7:35 AM 42.8 °F 38.6 °F 42.8 °F 100% 29.67 in 3.0 mi ESE 6.9 mph - N/A   Overcast
7:55 AM 42.8 °F 40.1 °F 42.8 °F 100% 29.68 in 1.2 mi SE 4.6 mph - 0.01 in   Overcast
8:15 AM 42.8 °F 41.1 °F 42.8 °F 100% 29.69 in 3.0 mi SE 3.5 mph - N/A   Overcast
8:35 AM 42.8 °F - 42.8 °F 100% 29.68 in 3.0 mi Calm Calm - N/A   Overcast
8:55 AM 42.8 °F - 42.8 °F 100% 29.68 in 4.0 mi Calm Calm - 0.01 in   Overcast
9:15 AM 44.6 °F - 42.8 °F 93% 29.68 in 4.0 mi Calm Calm - N/A   Overcast
9:35 AM 44.6 °F - 42.8 °F 93% 29.68 in 2.0 mi Calm Calm - N/A   Overcast
9:55 AM 44.6 °F 42.2 °F 42.8 °F 93% 29.67 in 1.5 mi NNW 4.6 mph - N/A   Overcast
10:15 AM 44.6 °F 41.4 °F 42.8 °F 93% 29.67 in 3.0 mi WNW 5.8 mph - N/A   Overcast
10:35 AM 44.6 °F 38.8 °F 44.6 °F 100% 29.68 in 3.0 mi WNW 11.5 mph - N/A   Overcast
10:55 AM 46.4 °F 41.5 °F 44.6 °F 93% 29.68 in 4.0 mi NW 10.4 mph - N/A   Overcast
11:15 AM 46.4 °F 40.7 °F 44.6 °F 93% 29.69 in 9.0 mi NW 12.7 mph - N/A   Overcast
11:35 AM 46.4 °F 39.8 °F 44.6 °F 93% 29.69 in 10.0 mi NNW 16.1 mph - N/A   Overcast
11:55 AM 48.2 °F - 46.4 °F 93% 29.69 in 10.0 mi NNW 17.3 mph - N/A   Overcast
12:15 PM 50.0 °F - 46.4 °F 87% 29.70 in 10.0 mi NNW 23.0 mph - N/A   Overcast
12:35 PM 51.8 °F - 46.4 °F 82% 29.70 in 10.0 mi NNW 19.6 mph - N/A   Overcast
12:55 PM 51.8 °F - 46.4 °F 82% 29.70 in 10.0 mi NNW 19.6 mph 25.3 mph N/A   Overcast
1:15 PM 53.6 °F - 48.2 °F 82% 29.71 in 10.0 mi NNW 19.6 mph 25.3 mph N/A   Mostly Cloudy
1:35 PM 53.6 °F - 46.4 °F 77% 29.71 in 10.0 mi NNW 19.6 mph 25.3 mph N/A   Scattered Clouds
1:55 PM 55.4 °F - 46.4 °F 72% 29.71 in 10.0 mi NNW 16.1 mph - N/A   Scattered Clouds
2:15 PM 55.4 °F - 44.6 °F 67% 29.71 in 10.0 mi North 21.9 mph 28.8 mph N/A   Scattered Clouds
2:35 PM 57.2 °F - 42.8 °F 59% 29.72 in 10.0 mi NNW 18.4 mph 26.5 mph N/A   Scattered Clouds
2:55 PM 57.2 °F - 44.6 °F 63% 29.72 in 10.0 mi NNW 17.3 mph 23.0 mph N/A   Mostly Cloudy
3:15 PM 59.0 °F - 42.8 °F 55% 29.72 in 10.0 mi NNW 17.3 mph 31.1 mph N/A   Scattered Clouds
3:35 PM 59.0 °F - 42.8 °F 55% 29.72 in 10.0 mi NNW 16.1 mph 29.9 mph N/A   Partly Cloudy
3:55 PM 59.0 °F - 42.8 °F 55% 29.72 in 10.0 mi NNW 15.0 mph 26.5 mph N/A   Partly Cloudy
4:15 PM 60.8 °F - 41.0 °F 48% 29.71 in 10.0 mi NNW 19.6 mph 26.5 mph N/A   Clear
4:35 PM 59.0 °F - 41.0 °F 51% 29.71 in 10.0 mi North 13.8 mph 24.2 mph N/A   Clear
4:55 PM 60.8 °F - 41.0 °F 48% 29.70 in 10.0 mi North 13.8 mph - N/A   Clear
5:15 PM 60.8 °F - 41.0 °F 48% 29.69 in 10.0 mi North 15.0 mph - N/A   Clear
5:35 PM 60.8 °F - 39.2 °F 45% 29.69 in 10.0 mi North 15.0 mph - N/A   Clear
5:55 PM 60.8 °F - 37.4 °F 42% 29.70 in 10.0 mi North 12.7 mph - N/A   Clear
6:15 PM 60.8 °F - 39.2 °F 45% 29.70 in 10.0 mi North 8.1 mph - N/A   Clear
6:35 PM 60.8 °F - 39.2 °F 45% 29.70 in 10.0 mi North 10.4 mph - N/A   Clear
6:55 PM 60.8 °F - 37.4 °F 42% 29.70 in 10.0 mi North 8.1 mph - N/A   Clear
7:15 PM 59.0 °F - 37.4 °F 45% 29.71 in 10.0 mi North 5.8 mph - N/A   Clear
7:35 PM 57.2 °F - 39.2 °F 51% 29.71 in 10.0 mi North 5.8 mph - N/A   Clear
7:55 PM 57.2 °F - 39.2 °F 51% 29.71 in 10.0 mi Calm Calm - N/A   Clear
8:15 PM 53.6 °F - 39.2 °F 58% 29.72 in 10.0 mi ENE 3.5 mph - N/A   Clear
8:35 PM 51.8 °F - 41.0 °F 67% 29.73 in 10.0 mi ESE 4.6 mph - N/A   Clear
8:55 PM 48.2 °F - 41.0 °F 76% 29.74 in 10.0 mi ESE 6.9 mph - N/A   Clear
9:15 PM 48.2 °F - 41.0 °F 76% 29.75 in 10.0 mi ESE 6.9 mph - N/A   Clear
9:35 PM 46.4 °F 44.3 °F 41.0 °F 81% 29.76 in 10.0 mi East 4.6 mph - N/A   Clear
9:55 PM 44.6 °F 40.2 °F 41.0 °F 87% 29.77 in 10.0 mi ESE 8.1 mph - N/A   Clear
10:15 PM 44.6 °F 40.7 °F 41.0 °F 87% 29.77 in 10.0 mi SE 6.9 mph - N/A   Clear
10:35 PM 44.6 °F 41.4 °F 41.0 °F 87% 29.77 in 10.0 mi SE 5.8 mph - N/A   Clear
10:55 PM 44.6 °F - 41.0 °F 87% 29.77 in 10.0 mi Calm Calm - N/A   Clear
11:15 PM 44.6 °F 42.2 °F 41.0 °F 87% 29.77 in 10.0 mi South 4.6 mph - N/A   Clear
11:35 PM 44.6 °F 41.4 °F 39.2 °F 81% 29.77 in 10.0 mi South 5.8 mph - N/A   Clear
11:55 PM 44.6 °F 42.2 °F 41.0 °F 87% 29.77 in 10.0 mi SSE 4.6 mph - N/A   Clear